AF1844 MDJB-MDPC

Flight info

Callsign AF1844
Flight time 0h 59m
Altitude 2500
Route MDPC
Aircraft H60/M-SDE3L/L

Departure

Time 2026-04-27 21:51
Airport La Isabela International Airport (MDJB)

Arrival

Time 2026-04-27 22:50
Airport Punta Cana International Airport (MDPC)
Time Latitude Longitude Altitude Speed Heading
2026-04-27 21:42 18.57844 -69.98266 98 ft 0 kts 276°
2026-04-27 21:44 18.57844 -69.98267 98 ft 0 kts 276°
2026-04-27 21:44 18.57845 -69.98267 99 ft 0 kts 297°
2026-04-27 21:44 18.57845 -69.98268 98 ft 0 kts 292°
2026-04-27 21:45 18.57846 -69.98268 98 ft 0 kts 281°
2026-04-27 21:45 18.57845 -69.98270 101 ft 0 kts 285°
2026-04-27 21:46 18.57846 -69.98286 102 ft 4 kts 283°
2026-04-27 21:46 18.57856 -69.98324 103 ft 8 kts
2026-04-27 21:46 18.57906 -69.98318 104 ft 7 kts 359°
2026-04-27 21:46 18.57949 -69.98333 102 ft 9 kts 280°
2026-04-27 21:47 18.57957 -69.98408 103 ft 6 kts 289°
2026-04-27 21:47 18.57959 -69.98478 103 ft 8 kts 183°
2026-04-27 21:47 18.57931 -69.98487 97 ft 5 kts 192°
2026-04-27 21:47 18.57921 -69.98491 96 ft 0 kts 189°
2026-04-27 21:49 18.57895 -69.98495 99 ft 10 kts 193°
2026-04-27 21:49 18.57779 -69.98509 106 ft 25 kts 190°
2026-04-27 21:49 18.57548 -69.98535 116 ft 40 kts 191°
2026-04-27 21:50 18.57221 -69.98571 157 ft 59 kts 187°
2026-04-27 21:50 18.56758 -69.98577 248 ft 69 kts 173°
2026-04-27 21:50 18.56456 -69.98192 421 ft 72 kts 127°
2026-04-27 21:50 18.56346 -69.97610 581 ft 92 kts 98°
2026-04-27 21:51 18.56510 -69.96864 572 ft 109 kts 79°
2026-04-27 21:51 18.56708 -69.96116 581 ft 106 kts 85°
2026-04-27 21:51 18.56891 -69.95346 858 ft 116 kts 86°
2026-04-27 21:51 18.57064 -69.94443 939 ft 131 kts 85°
2026-04-27 21:52 18.57243 -69.93450 820 ft 142 kts 86°
2026-04-27 21:52 18.57419 -69.92478 912 ft 133 kts 85°
2026-04-27 21:52 18.57578 -69.91512 1030 ft 131 kts 88°
2026-04-27 21:52 18.57734 -69.90592 1318 ft 126 kts 85°
2026-04-27 21:53 18.57873 -69.89616 1330 ft 140 kts 91°
2026-04-27 21:53 18.57685 -69.88640 1208 ft 133 kts 118°
2026-04-27 21:53 18.57304 -69.87794 1306 ft 127 kts 120°
2026-04-27 21:53 18.56889 -69.86953 1374 ft 132 kts 124°
2026-04-27 21:54 18.56423 -69.86102 1338 ft 136 kts 122°
2026-04-27 21:54 18.55964 -69.85225 1283 ft 133 kts 120°
2026-04-27 21:54 18.55561 -69.84359 1402 ft 133 kts 117°
2026-04-27 21:54 18.55159 -69.83505 1498 ft 122 kts 120°
2026-04-27 21:55 18.54755 -69.82715 1706 ft 124 kts 122°
2026-04-27 21:55 18.54331 -69.81925 1793 ft 126 kts 121°
2026-04-27 21:55 18.53908 -69.81111 1849 ft 128 kts 121°
2026-04-27 21:55 18.53474 -69.80306 1902 ft 125 kts 124°
2026-04-27 21:56 18.52809 -69.79852 1620 ft 125 kts 201°
2026-04-27 21:56 18.51887 -69.79777 982 ft 91 kts 117°
2026-04-27 21:56 18.51615 -69.79196 1103 ft 86 kts 121°
2026-04-27 21:57 18.51335 -69.78594 1116 ft 96 kts 120°
2026-04-27 21:57 18.51047 -69.77973 1378 ft 103 kts 121°
2026-04-27 21:57 18.50684 -69.77239 1593 ft 128 kts 121°
2026-04-27 21:57 18.50253 -69.76348 1455 ft 137 kts 120°
2026-04-27 21:58 18.49818 -69.75458 1440 ft 135 kts 121°
2026-04-27 21:58 18.49406 -69.74583 1446 ft 130 kts 120°
2026-04-27 21:58 18.49025 -69.73756 1621 ft 121 kts 119°
2026-04-27 21:58 18.48646 -69.72997 1934 ft 114 kts 121°
2026-04-27 21:59 18.48211 -69.72227 2028 ft 131 kts 123°
2026-04-27 21:59 18.47729 -69.71399 1924 ft 125 kts 124°
2026-04-27 21:59 18.47287 -69.70641 2098 ft 124 kts 124°
2026-04-27 21:59 18.46823 -69.69835 2060 ft 134 kts 122°
2026-04-27 22:00 18.46393 -69.68954 1916 ft 136 kts 119°
2026-04-27 22:00 18.46012 -69.68105 1994 ft 125 kts 117°
2026-04-27 22:00 18.45669 -69.67227 1929 ft 134 kts 114°
2026-04-27 22:00 18.45374 -69.66301 1811 ft 128 kts 110°
2026-04-27 22:01 18.45190 -69.65403 1921 ft 122 kts 104°
2026-04-27 22:01 18.45027 -69.64515 2086 ft 130 kts 105°
2026-04-27 22:01 18.44928 -69.63545 1925 ft 136 kts 94°
2026-04-27 22:01 18.44909 -69.62616 2120 ft 123 kts 96°
2026-04-27 22:02 18.44912 -69.61681 2228 ft 132 kts 92°
2026-04-27 22:02 18.44989 -69.60688 2219 ft 139 kts 87°
2026-04-27 22:02 18.45090 -69.59646 2105 ft 149 kts 89°
2026-04-27 22:02 18.45207 -69.58569 2009 ft 144 kts 87°
2026-04-27 22:03 18.45329 -69.57540 2017 ft 142 kts 86°
2026-04-27 22:03 18.45501 -69.56526 1970 ft 140 kts 81°
2026-04-27 22:03 18.45628 -69.55552 2016 ft 133 kts 89°
2026-04-27 22:03 18.45865 -69.54642 2176 ft 133 kts 66°
2026-04-27 22:04 18.46365 -69.53749 2054 ft 146 kts 63°
2026-04-27 22:04 18.46884 -69.52843 2022 ft 144 kts 64°
2026-04-27 22:04 18.47348 -69.51917 1982 ft 142 kts 69°
2026-04-27 22:04 18.47779 -69.50989 1984 ft 139 kts 69°
2026-04-27 22:05 18.48078 -69.50033 2002 ft 139 kts 82°
2026-04-27 22:05 18.48255 -69.49022 1884 ft 140 kts 84°
2026-04-27 22:05 18.48404 -69.48031 1899 ft 135 kts 86°
2026-04-27 22:05 18.48498 -69.47060 1914 ft 137 kts 88°
2026-04-27 22:06 18.48558 -69.46059 1822 ft 133 kts 93°
2026-04-27 22:06 18.48515 -69.45109 1922 ft 133 kts 99°
2026-04-27 22:06 18.48393 -69.44109 1775 ft 139 kts 102°
2026-04-27 22:06 18.48227 -69.43106 1669 ft 140 kts 104°
2026-04-27 22:07 18.48065 -69.42102 1599 ft 137 kts 98°
2026-04-27 22:07 18.48103 -69.41098 1561 ft 136 kts 89°
2026-04-27 22:07 18.48293 -69.40133 1634 ft 137 kts 81°
2026-04-27 22:07 18.48541 -69.39136 1554 ft 144 kts 80°
2026-04-27 22:08 18.48761 -69.38123 1493 ft 142 kts 81°
2026-04-27 22:08 18.49058 -69.37138 1508 ft 143 kts 75°
2026-04-27 22:08 18.49437 -69.36157 1426 ft 146 kts 71°
2026-04-27 22:08 18.49890 -69.35193 1380 ft 148 kts 65°
2026-04-27 22:09 18.50362 -69.34240 1366 ft 146 kts 66°
2026-04-27 22:09 18.50804 -69.33292 1388 ft 142 kts 66°
2026-04-27 22:09 18.51195 -69.32352 1453 ft 138 kts 74°
2026-04-27 22:09 18.51522 -69.31415 1515 ft 138 kts 74°
2026-04-27 22:10 18.51851 -69.30459 1475 ft 142 kts 75°
2026-04-27 22:10 18.52071 -69.29799 1460 ft 142 kts 75°
2026-04-27 22:10 18.52516 -69.28530 1533 ft 135 kts 77°
2026-04-27 22:10 18.52816 -69.27584 1598 ft 137 kts 76°
2026-04-27 22:11 18.53135 -69.26648 1698 ft 135 kts 76°
2026-04-27 22:11 18.53448 -69.25714 1789 ft 135 kts 76°
2026-04-27 22:11 18.53722 -69.24766 1853 ft 136 kts 77°
2026-04-27 22:11 18.53986 -69.23802 1873 ft 138 kts 78°
2026-04-27 22:12 18.54240 -69.22860 1923 ft 134 kts 81°
2026-04-27 22:12 18.54471 -69.21871 1850 ft 143 kts 81°
2026-04-27 22:12 18.54667 -69.20845 1758 ft 143 kts 83°
2026-04-27 22:12 18.54869 -69.19803 1611 ft 147 kts 81°
2026-04-27 22:13 18.55153 -69.18806 1587 ft 140 kts 76°
2026-04-27 22:13 18.55440 -69.17813 1512 ft 141 kts 78°
2026-04-27 22:13 18.55700 -69.16848 1553 ft 135 kts 77°
2026-04-27 22:13 18.55942 -69.15904 1583 ft 132 kts 79°
2026-04-27 22:14 18.56165 -69.14964 1560 ft 133 kts 81°
2026-04-27 22:14 18.56371 -69.14030 1528 ft 132 kts 80°
2026-04-27 22:14 18.56562 -69.13111 1622 ft 127 kts 83°
2026-04-27 22:14 18.56776 -69.12188 1646 ft 130 kts 76°
2026-04-27 22:15 18.57004 -69.11321 1887 ft 116 kts 80°
2026-04-27 22:15 18.57221 -69.10493 2103 ft 123 kts 81°
2026-04-27 22:15 18.57429 -69.09577 2029 ft 131 kts 82°
2026-04-27 22:15 18.57617 -69.08661 2029 ft 125 kts 82°
2026-04-27 22:16 18.57790 -69.07772 2137 ft 124 kts 83°
2026-04-27 22:16 18.57959 -69.06869 2140 ft 130 kts 84°
2026-04-27 22:16 18.58098 -69.05923 2099 ft 133 kts 84°
2026-04-27 22:16 18.58268 -69.04960 2027 ft 133 kts 82°
2026-04-27 22:17 18.58419 -69.04015 2031 ft 127 kts 86°
2026-04-27 22:17 18.58520 -69.03140 2341 ft 116 kts 87°
2026-04-27 22:17 18.58625 -69.02245 2432 ft 130 kts 86°
2026-04-27 22:17 18.58819 -69.01314 2421 ft 131 kts 72°
2026-04-27 22:18 18.59254 -69.00488 2441 ft 129 kts 65°
2026-04-27 22:18 18.59449 -68.99601 2457 ft 119 kts 77°
2026-04-27 22:18 18.59739 -68.98748 2550 ft 128 kts 74°
2026-04-27 22:18 18.60079 -68.97882 2606 ft 127 kts 73°
2026-04-27 22:19 18.60438 -68.97010 2605 ft 136 kts 71°
2026-04-27 22:19 18.60822 -68.96100 2457 ft 129 kts 71°
2026-04-27 22:19 18.61197 -68.95247 2527 ft 128 kts 71°
2026-04-27 22:19 18.61546 -68.94409 2648 ft 121 kts 73°
2026-04-27 22:20 18.61828 -68.93561 2718 ft 126 kts 77°
2026-04-27 22:20 18.62101 -68.92667 2760 ft 129 kts 78°
2026-04-27 22:20 18.62350 -68.91749 2751 ft 130 kts 79°
2026-04-27 22:20 18.62543 -68.90822 2775 ft 129 kts 82°
2026-04-27 22:21 18.62724 -68.89899 2817 ft 130 kts 82°
2026-04-27 22:21 18.62922 -68.88952 2765 ft 133 kts 81°
2026-04-27 22:21 18.63123 -68.88010 2747 ft 129 kts 83°
2026-04-27 22:21 18.63269 -68.87056 2721 ft 135 kts 88°
2026-04-27 22:22 18.63352 -68.86063 2573 ft 133 kts 88°
2026-04-27 22:22 18.63433 -68.85126 2611 ft 129 kts 89°
2026-04-27 22:22 18.63512 -68.84196 2695 ft 125 kts 88°
2026-04-27 22:22 18.63529 -68.83277 2706 ft 130 kts 96°
2026-04-27 22:23 18.63407 -68.82281 2374 ft 141 kts 103°
2026-04-27 22:23 18.63284 -68.81302 2281 ft 128 kts 99°
2026-04-27 22:23 18.63230 -68.80415 2488 ft 113 kts 97°
2026-04-27 22:23 18.63217 -68.79591 2749 ft 116 kts 95°
2026-04-27 22:24 18.63212 -68.78701 2781 ft 133 kts 95°
2026-04-27 22:24 18.63203 -68.77655 2393 ft 150 kts 97°
2026-04-27 22:24 18.63153 -68.76597 2170 ft 137 kts 98°
2026-04-27 22:24 18.63075 -68.75611 1775 ft 132 kts 98°
2026-04-27 22:25 18.62973 -68.74720 1616 ft 115 kts 102°
2026-04-27 22:25 18.62811 -68.73906 1539 ft 116 kts 108°
2026-04-27 22:25 18.62553 -68.73077 1226 ft 120 kts 114°
2026-04-27 22:25 18.62239 -68.72286 1010 ft 108 kts 116°
2026-04-27 22:26 18.61931 -68.71711 888 ft 81 kts 123°
2026-04-27 22:26 18.61813 -68.71203 726 ft 75 kts 74°
2026-04-27 22:26 18.61811 -68.70830 726 ft 53 kts 196°
2026-04-27 22:26 18.61494 -68.71093 695 ft 60 kts 277°
2026-04-27 22:27 18.61383 -68.71447 483 ft 34 kts 270°
2026-04-27 22:27 18.61379 -68.71562 359 ft 3 kts 285°
2026-04-27 22:27 18.61378 -68.71586 349 ft 4 kts 301°
2026-04-27 22:27 18.61381 -68.71594 345 ft 0 kts 298°
2026-04-27 22:35 18.61388 -68.71593 363 ft 4 kts 317°
2026-04-27 22:35 18.61413 -68.71594 448 ft 14 kts 345°
2026-04-27 22:35 18.61637 -68.71400 570 ft 80 kts 71°
2026-04-27 22:36 18.61354 -68.70835 1046 ft 99 kts 128°
2026-04-27 22:36 18.60877 -68.70183 923 ft 108 kts 126°
2026-04-27 22:36 18.60603 -68.69497 1007 ft 108 kts 103°
2026-04-27 22:36 18.60574 -68.68688 1394 ft 118 kts 94°
2026-04-27 22:37 18.60566 -68.67749 1449 ft 137 kts 94°
2026-04-27 22:37 18.60527 -68.66702 1213 ft 149 kts 97°
2026-04-27 22:37 18.60370 -68.65675 1212 ft 135 kts 102°
2026-04-27 22:37 18.60246 -68.64724 1313 ft 126 kts 103°
2026-04-27 22:38 18.60047 -68.63855 1551 ft 120 kts 104°
2026-04-27 22:38 18.59840 -68.62975 1673 ft 127 kts 108°
2026-04-27 22:38 18.59618 -68.62090 1743 ft 125 kts 106°
2026-04-27 22:38 18.59411 -68.61196 1875 ft 128 kts 106°
2026-04-27 22:39 18.59202 -68.60274 1885 ft 130 kts 105°
2026-04-27 22:39 18.59029 -68.59337 1845 ft 132 kts 101°
2026-04-27 22:39 18.58906 -68.58370 1843 ft 134 kts 99°
2026-04-27 22:39 18.58791 -68.57407 1812 ft 131 kts 100°
2026-04-27 22:40 18.58690 -68.56452 1846 ft 135 kts 98°
2026-04-27 22:40 18.58605 -68.55459 1775 ft 134 kts 98°
2026-04-27 22:40 18.58600 -68.54518 1862 ft 124 kts 86°
2026-04-27 22:40 18.58585 -68.53582 1895 ft 130 kts 95°
2026-04-27 22:41 18.58502 -68.52633 1863 ft 131 kts 98°
2026-04-27 22:41 18.58379 -68.51678 1875 ft 131 kts 100°
2026-04-27 22:41 18.58230 -68.50739 1971 ft 129 kts 102°
2026-04-27 22:41 18.58057 -68.49808 2073 ft 131 kts 102°
2026-04-27 22:42 18.57823 -68.48879 2103 ft 127 kts 111°
2026-04-27 22:42 18.57530 -68.48036 2394 ft 122 kts 110°
2026-04-27 22:42 18.57339 -68.47101 2274 ft 145 kts 104°
2026-04-27 22:42 18.57155 -68.46058 2131 ft 143 kts 101°
2026-04-27 22:43 18.57029 -68.45027 2050 ft 143 kts 98°
2026-04-27 22:43 18.56848 -68.44018 2053 ft 134 kts 102°
2026-04-27 22:43 18.56682 -68.43076 2230 ft 128 kts 103°
2026-04-27 22:43 18.56508 -68.42125 2176 ft 138 kts 105°
2026-04-27 22:44 18.56247 -68.41112 1959 ft 147 kts 107°
2026-04-27 22:44 18.55985 -68.40056 1734 ft 151 kts 104°
2026-04-27 22:44 18.55791 -68.38964 1476 ft 153 kts 98°
2026-04-27 22:44 18.55299 -68.38053 1362 ft 142 kts 142°
2026-04-27 22:45 18.54428 -68.37934 1560 ft 136 kts 192°
2026-04-27 22:45 18.53627 -68.38552 1436 ft 148 kts 228°
2026-04-27 22:45 18.53079 -68.39399 1718 ft 138 kts 239°
2026-04-27 22:45 18.52696 -68.40348 1683 ft 146 kts 246°
2026-04-27 22:46 18.52332 -68.41326 1383 ft 141 kts 248°
2026-04-27 22:46 18.52093 -68.42240 1403 ft 114 kts 268°
2026-04-27 22:46 18.52098 -68.43060 1541 ft 111 kts 276°
2026-04-27 22:46 18.52326 -68.43767 1707 ft 105 kts 312°
2026-04-27 22:47 18.52960 -68.44205 1650 ft 113 kts 337°
2026-04-27 22:47 18.53662 -68.44563 1650 ft 111 kts 340°
2026-04-27 22:47 18.54349 -68.44904 1680 ft 107 kts 347°
2026-04-27 22:47 18.55010 -68.44675 1526 ft 103 kts 53°
2026-04-27 22:48 18.55357 -68.44053 1593 ft 100 kts 67°
2026-04-27 22:48 18.55654 -68.43320 1418 ft 110 kts 73°
2026-04-27 22:48 18.55912 -68.42590 1460 ft 106 kts 74°
2026-04-27 22:48 18.56125 -68.41849 1411 ft 108 kts 81°
2026-04-27 22:49 18.56276 -68.41061 1319 ft 112 kts 80°
2026-04-27 22:49 18.56391 -68.40224 1056 ft 117 kts 86°
2026-04-27 22:49 18.56465 -68.39433 832 ft 100 kts 84°
2026-04-27 22:49 18.56532 -68.38735 519 ft 85 kts 88°
2026-04-27 22:50 18.56576 -68.38260 379 ft 52 kts 88°
2026-04-27 22:50 18.56496 -68.37883 267 ft 58 kts 109°
2026-04-27 22:50 18.56469 -68.37414 148 ft 66 kts 90°
2026-04-27 22:50 18.56501 -68.37011 68 ft 49 kts 91°
2026-04-27 22:51 18.56523 -68.36776 55 ft 18 kts 98°
2026-04-27 22:51 18.56515 -68.36677 50 ft 8 kts 127°
2026-04-27 22:51 18.56497 -68.36635 52 ft 6 kts 140°
2026-04-27 22:51 18.56484 -68.36581 105 ft 12 kts 89°
2026-04-27 22:52 18.56521 -68.36444 219 ft 35 kts 60°
2026-04-27 22:52 18.56898 -68.36353 166 ft 70 kts
2026-04-27 22:52 18.57387 -68.36314 279 ft 85 kts 44°
2026-04-27 22:52 18.57097 -68.35880 369 ft 84 kts 185°
2026-04-27 22:53 18.56706 -68.35931 331 ft 50 kts 269°
2026-04-27 22:53 18.56866 -68.36339 265 ft 65 kts 289°
2026-04-27 22:53 18.57189 -68.36510 231 ft 45 kts 227°
2026-04-27 22:53 18.57304 -68.36712 90 ft 22 kts 151°
2026-04-27 22:54 18.57218 -68.36755 149 ft 15 kts 172°
2026-04-27 22:54 18.57083 -68.36725 254 ft 27 kts 181°
2026-04-27 22:54 18.56800 -68.36982 247 ft 73 kts 229°
2026-04-27 22:54 18.56516 -68.37472 285 ft 84 kts 252°
2026-04-27 22:55 18.56420 -68.37966 323 ft 37 kts 45°
2026-04-27 22:55 18.56463 -68.37928 228 ft 32 kts 90°
2026-04-27 22:55 18.56390 -68.37613 171 ft 45 kts 357°
2026-04-27 22:55 18.56392 -68.37467 43 ft 2 kts 358°
2026-04-27 22:56 18.56395 -68.37466 41 ft 0 kts
2026-04-27 22:58 18.56425 -68.37432 54 ft 22 kts 59°
2026-04-27 22:58 18.56436 -68.37231 64 ft 26 kts 99°
2026-04-27 22:59 18.56423 -68.37086 61 ft 14 kts 111°
2026-04-27 22:59 18.56401 -68.36977 58 ft 19 kts 81°
2026-04-27 22:59 18.56427 -68.36893 52 ft 9 kts 273°